Date,TemperatureHighF,TemperatureAvgF,TemperatureLowF,DewpointHighF,DewpointAvgF,DewpointLowF,HumidityHigh,HumidityAvg,HumidityLow,PressureMaxIn,PressureMinIn,WindSpeedMaxMPH,WindSpeedAvgMPH,GustSpeedMaxMPH,PrecipitationSumIn
2013-1-1,-2,-5,-6,-5,-8,-10,86,84,80,0.00,40.00,20,10,35,0.00
2013-1-2,-2,-4,-6,-6,-8,-12,86,82,75,0.00,40.00,24,15,44,0.00
2013-1-3,14,6,-6,-8,-13,-19,83,46,23,0.00,40.00,9,7,22,0.00
2013-1-4,23,16,14,3,-1,-12,59,48,27,0.00,40.00,9,4,23,0.00
2013-1-5,16,14,10,-9,-13,-24,37,28,14,0.00,40.00,26,16,43,0.00
2013-1-6,28,24,22,-11,-26,-38,22,10,4,0.00,40.00,23,16,28,0.00
2013-1-7,24,21,18,-9,-18,-26,24,17,11,0.00,40.00,19,14,29,0.00
2013-1-8,18,16,11,10,2,-19,76,58,18,0.00,40.00,23,16,40,0.00
2013-1-9,29,23,17,5,1,-6,57,39,21,0.00,40.00,18,10,24,0.00
2013-1-10,25,22,18,6,-2,-13,55,37,17,0.00,40.00,23,16,35,0.00
2013-1-11,10,-2,-10,7,-7,-14,92,78,62,0.00,40.00,21,16,39,0.00
2013-1-12,-8,-13,-15,-15,-18,-19,82,79,71,0.00,40.00,13,10,26,0.00
2013-1-13,-10,-14,-16,-15,-19,-21,83,78,67,0.00,40.00,15,10,24,0.00
2013-1-14,-7,-13,-15,-16,-18,-19,83,77,64,0.00,40.00,15,12,25,0.00
2013-1-15,10,-4,-16,8,-9,-22,92,79,64,0.00,40.00,28,17,46,0.00
2013-1-16,21,15,8,12,8,6,95,76,53,0.00,40.00,21,12,39,0.00
2013-1-17,24,18,15,6,0,-5,65,46,34,0.00,40.00,16,11,25,0.00
2013-1-18,20,17,16,-4,-7,-9,37,33,31,0.00,40.00,27,20,47,0.00
2013-1-19,18,16,14,-3,-4,-6,44,40,34,0.00,40.00,31,28,57,0.00
2013-1-20,20,17,15,-1,-5,-12,48,38,28,0.00,40.00,25,21,50,0.00
2013-1-21,19,16,13,4,-4,-15,59,44,20,0.00,40.00,28,22,50,0.00
2013-1-22,27,23,20,-18,-22,-26,16,11,8,0.00,40.00,27,20,53,0.00
2013-1-23,34,30,26,-10,-17,-28,15,12,7,0.00,40.00,24,20,40,0.00
2013-1-24,29,25,21,21,1,-15,96,47,14,0.00,40.00,28,23,52,0.00
2013-1-25,25,22,20,21,20,18,99,93,83,0.00,40.00,18,13,32,0.00
2013-1-26,30,23,19,24,20,15,99,89,64,0.00,40.00,15,10,26,0.00
2013-1-27,24,21,18,24,17,5,98,83,56,0.00,40.00,20,17,40,0.00
2013-1-28,18,14,7,15,8,3,92,78,59,0.00,40.00,19,13,41,0.00
2013-1-29,4,-5,-9,0,-9,-13,88,84,79,0.00,40.00,17,13,29,0.00
2013-1-30,7,-2,-9,6,-5,-12,92,87,82,0.00,40.00,36,26,64,0.00
2013-1-31,11,9,7,7,6,4,92,87,74,0.00,40.00,30,22,60,0.00
2013-2-1,11,10,9,8,7,7,91,89,85,0.00,40.00,27,20,54,0.00
2013-2-2,21,16,9,6,-2,-6,87,50,31,0.00,40.00,24,17,33,0.00
2013-2-3,22,18,14,-4,-12,-24,39,26,11,0.00,40.00,21,19,38,0.00
2013-2-4,18,14,12,8,-4,-8,77,43,33,0.00,40.00,30,23,53,0.00
2013-2-5,27,19,14,16,12,8,81,72,61,0.00,40.00,27,19,44,0.00
2013-2-6,23,18,9,14,12,7,93,75,66,0.00,40.00,21,12,35,0.00
2013-2-7,19,10,6,7,-11,-100,92,51,23,0.00,40.00,22,17,31,0.00
2013-2-8,23,17,14,12,3,-10,83,57,33,0.00,40.00,20,14,30,0.00
2013-2-9,15,10,3,13,6,0,90,85,80,0.00,40.00,20,13,35,0.00
2013-2-10,5,1,-1,0,-3,-4,90,84,70,0.00,40.00,27,13,43,0.00
2013-2-11,3,-1,-4,-2,-5,-7,89,83,77,0.00,40.00,18,12,21,0.00
2013-2-12,3,-1,-6,0,-14,-100,87,69,28,0.00,40.00,19,13,40,0.00
2013-2-13,9,5,2,7,3,0,91,90,87,0.00,40.00,31,18,54,0.00
2013-2-14,8,6,4,5,3,0,90,88,84,0.00,40.00,25,16,43,0.00
2013-2-15,7,3,1,3,0,-1,90,88,84,0.00,40.00,26,21,50,0.00
2013-2-16,17,12,8,7,3,-2,82,68,44,0.00,40.00,27,22,57,0.00
2013-2-17,22,16,6,6,-6,-15,86,42,21,0.00,40.00,25,20,52,0.00
2013-2-18,6,1,-2,0,-6,-15,87,73,37,0.00,40.00,19,14,31,0.00
2013-2-19,24,15,7,-2,-18,-35,49,25,8,0.00,40.00,20,13,29,0.00
2013-2-20,19,12,6,11,2,-3,95,66,47,0.00,40.00,12,7,19,0.00
2013-2-21,6,5,4,5,3,1,93,89,86,0.00,40.00,18,10,33,0.00
2013-2-22,6,0,-3,0,-3,-6,89,84,69,0.00,40.00,20,13,34,0.00
2013-2-23,15,5,-3,10,2,-6,93,86,79,0.00,40.00,28,19,47,0.00
2013-2-24,7,4,1,5,1,-1,92,90,86,0.00,40.00,25,13,36,0.00
2013-2-25,12,6,-2,1,-2,-6,89,69,49,0.00,40.00,18,10,36,0.00
2013-2-26,8,3,0,2,-1,-4,86,82,74,0.00,40.00,19,10,32,0.00
2013-2-27,4,-2,-4,-3,-6,-7,88,82,63,0.00,40.00,25,14,41,0.00
2013-2-28,7,2,-3,4,-1,-7,89,86,75,0.00,40.00,24,18,44,0.00
2013-3-1,14,10,6,13,8,4,95,91,86,0.00,40.00,34,21,47,0.00
2013-3-2,25,20,14,18,12,6,96,75,44,0.00,40.00,25,18,39,0.00
2013-3-3,25,22,19,18,14,8,92,70,48,0.00,40.00,31,21,62,0.00
2013-3-4,18,9,-2,16,7,-5,96,91,85,0.00,40.00,27,16,56,0.00
2013-3-5,25,15,-2,-7,-17,-27,69,25,13,0.00,40.00,26,20,36,0.00
2013-3-6,28,23,20,3,-2,-14,41,34,18,0.00,40.00,24,20,43,0.00
2013-3-7,33,26,23,6,0,-7,48,34,22,0.00,40.00,25,14,44,0.00
2013-3-8,30,23,19,17,10,-4,89,60,28,0.00,40.00,17,12,28,0.00
2013-3-9,19,11,3,18,10,0,96,93,90,0.00,40.00,16,10,31,0.00
2013-3-10,0,0,0,-4,-4,-4,84,84,84,0.00,40.00,11,11,31,0.00
2013-3-11,17,14,11,14,10,2,93,84,62,0.00,40.00,30,21,62,0.00
2013-3-12,20,16,14,16,14,12,94,88,74,0.00,40.00,27,22,58,0.00
2013-3-13,20,19,19,16,15,14,86,83,75,0.00,40.00,31,27,50,0.00
2013-3-14,31,25,23,16,13,7,72,60,35,0.00,40.00,22,17,41,0.00
2013-3-15,36,31,29,15,12,10,54,45,34,0.00,40.00,28,21,48,0.00
2013-3-16,30,23,20,22,19,14,92,83,50,0.00,40.00,19,14,34,0.00
2013-3-17,20,16,8,17,12,4,93,83,74,0.00,40.00,28,20,59,0.00
2013-3-18,12,6,2,10,3,-1,94,87,80,0.00,40.00,28,18,50,0.00
2013-3-19,12,10,7,9,-3,-17,93,59,24,0.00,40.00,30,17,59,0.00
2013-3-20,25,18,14,18,-1,-24,91,49,16,0.00,40.00,25,19,44,0.00
2013-3-21,19,18,18,17,17,16,94,93,91,0.00,40.00,24,15,36,0.00
2013-3-27,27,25,22,16,14,11,77,63,51,0.00,40.00,18,14,37,0.00
2013-3-28,30,26,23,16,12,8,66,54,46,0.00,40.00,20,12,30,0.00
2013-3-29,27,25,23,23,19,14,94,79,63,0.00,40.00,20,14,39,0.00
2013-3-30,23,23,22,21,20,20,92,90,88,0.00,40.00,17,14,30,0.00
2013-4-1,31,27,22,23,20,15,99,76,51,0.00,40.00,10,7,28,0.00
2013-4-2,23,19,14,22,18,13,98,96,88,0.00,40.00,13,4,20,0.00
2013-4-3,27,23,15,26,18,11,97,79,58,0.00,40.00,15,9,22,0.00
2013-4-4,35,28,20,19,15,11,92,59,37,0.00,40.00,17,14,36,0.00
2013-4-5,35,30,23,23,16,9,99,59,40,0.00,40.00,24,18,46,0.00
2013-4-6,28,22,15,21,16,12,93,77,50,0.00,40.00,21,14,41,0.00
2013-4-7,24,22,18,21,18,16,95,87,73,0.00,40.00,19,16,42,0.00
2013-4-8,30,25,18,24,18,11,99,76,49,0.00,40.00,17,11,39,0.00
2013-4-9,14,5,-1,13,3,-3,96,91,89,0.00,40.00,12,7,21,0.00
2013-4-10,11,6,2,8,3,-3,91,87,69,0.00,40.00,28,16,56,0.00
2013-4-11,20,16,11,17,14,9,96,93,89,0.00,40.00,31,22,53,0.00
2013-4-12,25,21,16,16,8,4,96,61,41,0.00,40.00,18,15,36,0.00
2013-4-13,28,23,19,21,10,4,90,57,45,0.00,40.00,30,21,54,0.00
2013-4-14,15,10,5,14,7,1,95,85,68,0.00,40.00,36,27,59,0.00
2013-4-15,21,17,13,20,16,10,97,94,91,0.00,40.00,15,8,32,0.00
2013-4-16,28,19,14,20,15,12,96,85,65,0.00,40.00,20,12,44,0.00
2013-4-17,18,15,9,16,13,8,96,90,82,0.00,40.00,9,6,18,0.00
2013-4-20,22,18,15,19,16,14,96,90,79,0.00,40.00,17,13,34,0.00
2013-4-21,25,20,15,17,14,7,94,75,47,0.00,40.00,25,16,43,0.00
2013-4-22,24,18,5,20,14,3,95,84,59,0.00,40.00,22,14,45,0.00
2013-4-23,10,8,1,9,4,-3,95,85,66,0.00,40.00,21,10,34,0.00
2013-4-24,20,12,5,8,-1,-10,77,58,41,0.00,40.00,19,12,30,0.00
2013-4-25,34,27,15,8,3,-4,46,35,29,0.00,40.00,25,18,43,0.00
2013-4-26,34,28,23,7,5,2,46,36,26,0.00,40.00,9,6,19,0.00
2013-4-27,36,31,26,11,8,4,42,38,30,0.00,40.00,15,11,27,0.00
2013-4-28,41,35,29,16,13,7,47,41,34,0.00,40.00,18,15,41,0.00
2013-4-29,41,36,30,23,17,14,75,48,35,0.00,40.00,25,22,48,0.00
2013-4-30,40,38,34,27,19,14,72,47,38,0.00,40.00,25,18,56,0.00
2013-5-1,25,15,6,25,14,5,99,96,93,0.00,40.00,10,6,21,0.00
2013-5-2,15,10,4,9,6,-1,93,80,60,0.00,40.00,21,12,34,0.00
2013-5-3,33,25,14,19,9,2,82,53,29,0.00,40.00,13,6,26,0.00
2013-5-4,33,26,18,25,19,13,99,78,45,0.00,40.00,11,6,19,0.00
2013-5-5,34,30,24,25,20,14,91,68,44,0.00,40.00,15,11,24,0.00
2013-5-6,35,30,26,27,23,19,100,78,58,0.00,40.00,13,8,27,0.00
2013-5-7,33,28,24,26,24,22,100,87,62,0.00,40.00,11,9,18,0.00
2013-5-8,31,27,25,31,24,19,99,89,76,0.00,40.00,19,8,30,0.00
2013-5-9,27,24,21,26,23,21,100,98,96,0.00,40.00,26,15,38,0.00
2013-5-10,33,26,22,27,24,22,98,92,72,0.00,40.00,9,7,22,0.00
2013-5-11,39,32,23,25,21,17,97,67,42,0.00,40.00,18,10,31,0.00
2013-5-12,42,36,30,24,22,20,75,57,42,0.00,40.00,17,13,31,0.00
2013-5-13,50,44,39,28,25,22,58,47,33,0.00,40.00,17,11,22,0.00
2013-5-14,49,44,39,31,26,23,66,50,37,0.00,40.00,15,10,29,0.00
2013-5-15,44,41,35,33,28,24,94,61,49,0.00,40.00,14,7,24,0.00
2013-5-16,41,32,33,30,6,-100,89,62,48,0.00,40.00,15,12,24,0.00
2013-5-17,48,39,39,19,-2,-100,44,30,19,0.00,40.00,12,12,28,0.00
2013-5-18,37,34,31,31,18,10,88,54,31,0.00,40.00,13,10,24,0.00
2013-5-19,26,25,23,24,22,21,98,89,82,0.00,40.00,20,16,36,0.00
2013-5-20,28,26,23,25,23,21,95,91,84,0.00,40.00,21,16,40,0.00
2013-5-21,34,30,23,25,23,20,89,73,59,0.00,40.00,23,14,40,0.00
2013-5-22,46,39,31,29,22,15,85,55,28,0.00,40.00,14,8,28,0.00
2013-5-23,49,40,32,28,22,17,81,53,28,0.00,40.00,18,9,41,0.00
2013-5-24,49,43,39,18,13,7,41,30,18,0.00,40.00,14,12,29,0.00
2013-5-25,49,43,39,13,10,6,31,26,17,0.00,40.00,14,12,27,0.00
2013-5-26,51,44,40,24,13,9,52,30,18,0.00,40.00,13,8,35,0.00
2013-5-27,43,41,38,15,11,4,36,30,23,0.00,40.00,17,13,31,0.00
2013-5-28,45,40,36,19,14,12,47,35,27,0.00,40.00,13,10,29,0.00
2013-5-29,35,28,25,26,23,19,95,82,51,0.00,40.00,22,14,39,0.00
2013-5-30,30,24,22,23,21,17,95,87,57,0.00,40.00,26,21,52,0.00
2013-5-31,32,28,23,16,12,9,66,52,39,0.00,40.00,28,24,51,0.00
2013-6-1,42,32,22,28,22,14,87,68,42,0.00,40.00,13,8,31,0.00
2013-6-2,51,43,34,23,14,9,64,32,24,0.00,40.00,20,13,30,0.00
2013-6-3,48,45,43,24,18,14,44,33,27,0.00,40.00,22,17,52,0.00
2013-6-4,47,42,35,32,23,11,89,49,29,0.00,40.00,27,16,46,0.00
2013-6-5,45,39,34,30,24,19,81,54,38,0.00,40.00,17,13,32,0.00
2013-6-6,46,41,37,32,24,16,76,51,38,0.00,40.00,9,7,18,0.00
2013-6-7,47,42,35,30,27,23,83,57,44,0.00,40.00,22,10,43,0.00
2013-6-8,46,45,41,31,28,24,65,50,41,0.00,40.00,23,17,47,0.00
2013-6-9,56,50,40,26,24,22,51,37,27,0.00,40.00,21,15,38,0.00
2013-6-10,60,55,51,25,23,20,34,28,23,0.00,40.00,21,14,31,0.00
2013-6-11,56,52,48,21,14,5,28,22,12,0.00,40.00,24,18,45,0.00
2013-6-12,59,52,44,18,17,15,31,25,19,0.00,40.00,17,11,37,0.00
2013-6-13,57,53,48,28,21,15,45,29,25,0.00,40.00,16,12,45,0.00
2013-6-14,56,50,44,27,19,7,51,31,13,0.00,40.00,16,12,30,0.00
2013-6-15,52,50,46,21,17,8,37,26,18,0.00,40.00,17,14,33,0.00
2013-6-16,49,44,41,33,27,22,69,51,41,0.00,40.00,17,11,31,0.00
2013-6-17,51,46,40,31,25,21,66,45,29,0.00,40.00,19,10,45,0.00
2013-6-18,57,51,41,35,24,18,63,37,21,0.00,40.00,10,8,26,0.00
2013-6-19,58,50,43,28,10,3,55,21,12,0.00,40.00,18,12,31,0.00
2013-6-20,56,50,47,14,9,4,21,18,16,0.00,40.00,16,12,29,0.00
2013-6-22,53,51,47,17,15,13,28,23,20,0.00,40.00,18,12,34,0.00
2013-6-23,53,47,41,29,20,13,55,36,24,0.00,40.00,14,11,40,0.00
2013-6-24,53,49,45,22,15,11,40,26,19,0.00,40.00,17,13,34,0.00
2013-6-25,54,49,42,28,24,17,44,38,34,0.00,40.00,23,15,46,0.00
2013-6-26,64,56,47,29,27,25,45,33,25,0.00,40.00,12,10,23,0.00
2013-6-27,65,57,50,31,26,21,39,31,18,0.00,40.00,12,7,22,0.00
2013-6-28,62,56,50,41,32,24,65,42,25,0.00,40.00,21,11,28,0.00
2013-6-29,59,53,47,38,35,29,67,50,37,0.00,40.00,10,6,33,0.00
2013-6-30,54,48,42,41,37,33,90,67,44,0.00,40.00,15,10,38,0.00
2013-7-1,51,46,40,42,36,28,100,71,40,0.00,40.00,14,8,25,0.00
2013-7-2,54,46,41,40,34,26,95,65,33,0.00,40.00,15,9,29,0.00
2013-7-3,53,48,43,36,32,31,74,55,43,0.00,40.00,20,12,40,0.00
2013-7-4,44,44,44,35,35,35,70,70,70,0.00,40.00,14,14,22,0.00
2013-7-6,56,53,50,42,40,38,72,61,51,0.00,40.00,14,7,26,0.00
2013-7-7,57,51,44,42,38,35,87,64,43,0.00,40.00,14,9,35,0.00
2013-7-8,58,50,40,39,36,29,94,60,33,0.00,40.00,20,13,36,0.00
2013-7-9,58,54,48,35,32,29,56,44,34,0.00,40.00,16,7,24,0.00
2013-7-10,61,52,48,42,29,-100,67,48,32,0.00,40.00,17,9,31,0.00
2013-7-11,65,56,47,42,35,27,82,46,25,0.00,40.00,11,6,34,0.00
2013-7-12,58,51,47,44,41,39,90,69,51,0.00,40.00,14,8,40,0.00
2013-7-13,58,50,45,44,41,38,89,71,57,0.00,40.00,11,7,31,0.00
2013-7-14,54,49,45,46,43,39,99,81,63,0.00,40.00,10,6,19,0.00
2013-7-15,53,47,43,46,44,43,100,91,74,0.00,40.00,12,6,27,0.00
2013-7-16,57,49,41,43,-1,-100,100,59,24,0.00,40.00,14,7,22,0.00
2013-7-17,60,52,43,44,41,37,82,66,49,0.00,40.00,14,7,19,0.00
2013-7-18,58,50,47,43,41,39,76,69,53,0.00,40.00,9,7,18,0.00
2013-7-19,55,50,44,45,39,30,94,66,48,0.00,40.00,13,8,23,0.00
2013-7-20,59,51,45,44,29,-100,84,49,23,0.00,40.00,13,8,28,0.00
2013-7-21,60,54,50,32,22,17,47,28,18,0.00,40.00,17,12,29,0.00
2013-7-22,61,56,52,30,18,10,40,23,13,0.00,40.00,18,12,31,0.00
2013-7-23,61,56,51,36,2,-100,54,22,14,0.00,40.00,15,10,27,0.00
2013-7-24,58,52,45,40,34,29,83,53,33,0.00,40.00,17,11,41,0.00
2013-7-25,53,45,39,41,39,36,99,81,61,0.00,40.00,16,8,29,0.00
2013-7-26,55,50,44,34,31,25,64,48,31,0.00,40.00,12,9,29,0.00
2013-7-27,55,50,41,38,34,26,90,55,35,0.00,40.00,17,10,25,0.00
2013-7-28,49,44,41,42,40,38,96,87,73,0.00,40.00,13,9,26,0.00
2013-7-29,46,44,41,41,39,37,92,84,77,0.00,40.00,14,9,25,0.00
2013-7-30,51,45,41,39,36,34,87,70,59,0.00,40.00,16,12,31,0.00
2013-7-31,57,51,46,36,34,31,62,52,39,0.00,40.00,14,8,25,0.00
2013-8-1,55,49,43,40,37,32,81,64,45,0.00,40.00,14,10,30,0.00
2013-8-2,58,50,45,39,34,23,79,56,26,0.00,40.00,15,11,27,0.00
2013-8-3,57,49,43,44,39,33,100,69,41,0.00,40.00,14,8,24,0.00
2013-8-4,56,49,42,42,37,33,100,66,42,0.00,40.00,11,9,30,0.00
2013-8-5,53,48,43,40,37,35,81,67,52,0.00,40.00,11,9,27,0.00
2013-8-6,52,46,43,40,34,29,90,64,40,0.00,40.00,15,10,27,0.00
2013-8-7,48,44,40,36,32,27,85,62,49,0.00,40.00,8,4,18,0.00
2013-8-8,50,44,40,36,31,24,83,60,44,0.00,40.00,17,6,30,0.00
2013-8-9,46,41,37,36,32,29,90,71,54,0.00,40.00,12,6,18,0.00
2013-8-10,54,47,41,32,28,23,70,49,30,0.00,40.00,14,11,27,0.00
2013-8-11,51,44,41,39,34,31,87,68,50,0.00,40.00,10,5,18,0.00
2013-8-12,51,46,37,37,32,28,95,62,41,0.00,40.00,10,6,26,0.00
2013-8-13,47,42,36,36,34,32,97,76,54,0.00,40.00,14,9,24,0.00
2013-8-14,50,45,40,33,28,23,74,52,38,0.00,40.00,15,10,32,0.00
2013-8-15,54,46,45,26,16,-100,46,33,22,0.00,40.00,18,11,31,0.00
2013-8-16,58,50,48,29,15,-100,46,29,22,0.00,40.00,13,8,23,0.00
2013-8-17,59,54,47,30,22,16,51,30,20,0.00,40.00,16,8,22,0.00
2013-8-18,56,50,45,40,33,27,80,52,36,0.00,40.00,17,8,22,0.00
2013-8-19,59,48,48,36,22,-100,62,45,29,0.00,40.00,19,9,24,0.00
2013-8-20,49,48,48,36,35,34,63,58,54,0.00,40.00,18,18,21,0.00
2013-8-22,49,46,43,42,40,39,93,82,71,0.00,40.00,16,10,26,0.00
2013-8-23,55,48,42,42,39,35,92,73,49,0.00,40.00,15,8,24,0.00
2013-8-24,54,47,43,42,38,36,96,73,55,0.00,40.00,12,7,18,0.00
2013-8-25,52,47,44,44,40,37,90,77,60,0.00,40.00,12,8,25,0.00
2013-8-26,56,49,46,47,43,40,99,79,61,0.00,40.00,15,9,26,0.00
2013-8-27,59,52,46,45,41,39,95,68,48,0.00,40.00,8,5,13,0.00
2013-8-28,58,53,45,44,40,37,86,63,44,0.00,40.00,13,8,24,0.00
2013-8-29,58,51,45,43,39,36,91,64,44,0.00,40.00,13,6,26,0.00
2013-8-30,57,51,44,42,39,36,87,65,53,0.00,40.00,16,10,24,0.00
2013-8-31,55,48,43,44,39,37,94,70,51,0.00,40.00,10,6,18,0.00
2013-9-1,53,47,42,46,42,38,88,79,67,0.00,40.00,8,4,17,0.00
2013-9-2,58,52,49,45,39,36,80,62,44,0.00,40.00,16,8,21,0.00
2013-9-3,59,51,45,42,40,38,90,67,46,0.00,40.00,16,10,23,0.00
2013-9-4,54,51,48,45,40,36,77,65,56,0.00,40.00,15,6,20,0.00
2013-9-5,61,53,46,43,39,37,83,59,43,0.00,40.00,17,8,21,0.00
2013-9-6,57,51,45,41,38,34,85,60,50,0.00,40.00,15,9,22,0.00
2013-9-7,58,52,46,40,36,32,77,54,40,0.00,40.00,13,7,26,0.00
2013-9-8,55,49,44,43,36,31,88,63,39,0.00,40.00,16,8,28,0.00
2013-9-9,50,45,41,44,40,38,99,84,64,0.00,40.00,14,8,23,0.00
2013-9-10,44,42,40,43,41,40,100,97,91,0.00,40.00,7,4,20,0.00
2013-9-11,44,42,41,44,42,41,100,100,100,0.00,40.00,8,4,13,0.00
2013-9-12,45,42,40,44,42,40,100,99,95,0.00,40.00,8,5,18,0.00
2013-9-13,47,42,39,41,39,38,100,90,75,0.00,40.00,8,4,17,0.00
2013-9-14,47,41,38,39,36,34,94,82,69,0.00,40.00,11,6,19,0.00
2013-9-15,40,38,36,39,36,35,100,95,81,0.00,40.00,9,4,18,0.00
2013-9-16,46,40,35,36,35,34,100,80,64,0.00,40.00,16,11,26,0.00
2013-9-17,50,44,39,34,32,28,79,63,43,0.00,40.00,12,9,20,0.00
2013-9-18,44,40,36,35,33,32,88,74,63,0.00,40.00,16,13,38,0.00
2013-9-19,42,37,34,32,15,-100,91,64,28,0.00,40.00,19,13,37,0.00
2013-9-20,50,40,32,25,6,-100,74,39,20,0.00,40.00,16,10,23,0.00
2013-9-21,50,44,40,27,24,18,53,44,38,0.00,40.00,20,12,38,0.00
2013-9-22,44,38,29,38,31,26,99,77,49,0.00,40.00,15,8,24,0.00
2013-9-23,28,26,23,28,24,21,100,90,73,0.00,40.00,31,23,61,0.00
2013-9-24,46,37,28,19,1,-100,69,37,20,0.00,40.00,18,13,29,0.00
2013-9-25,50,42,37,21,13,5,42,32,22,0.00,40.00,25,18,47,0.00
2013-9-26,51,43,38,22,16,11,49,34,27,0.00,40.00,20,14,40,0.00
2013-9-27,39,30,16,30,23,13,99,77,35,0.00,40.00,19,11,39,0.00
2013-9-28,35,25,14,20,-3,-100,94,62,34,0.00,40.00,31,18,58,0.00
2013-9-29,41,35,30,14,10,6,46,35,28,0.00,40.00,28,18,43,0.00
2013-9-30,49,41,35,27,20,14,51,43,31,0.00,40.00,23,18,37,0.00
2013-10-1,52,44,41,34,24,18,67,47,25,0.00,40.00,11,8,19,0.00
2013-10-2,49,41,35,28,18,9,72,41,22,0.00,40.00,12,8,21,0.00
2013-10-3,46,39,33,33,18,13,100,46,27,0.00,40.00,19,12,37,0.00
2013-10-4,34,16,8,23,13,6,96,86,64,0.00,40.00,20,14,38,0.00
2013-10-5,21,14,8,10,-18,-100,91,69,29,0.00,40.00,20,15,42,0.00
2013-10-6,36,30,20,23,17,-1,67,58,39,0.00,40.00,24,12,36,0.00
2013-10-7,49,41,33,17,-9,-100,51,24,13,0.00,40.00,14,9,23,0.00
2013-10-8,47,40,35,21,12,6,55,32,19,0.00,40.00,19,12,34,0.00
2013-10-9,41,36,32,26,20,12,73,54,31,0.00,40.00,12,8,30,0.00
2013-10-10,33,28,20,25,22,18,97,77,54,0.00,40.00,24,14,49,0.00
2013-10-11,24,22,20,21,20,19,96,92,86,0.00,40.00,27,19,48,0.00
2013-10-12,32,25,18,20,16,12,94,71,41,0.00,40.00,17,10,24,0.00
2013-10-13,38,32,26,28,20,10,99,63,48,0.00,40.00,21,14,36,0.00
2013-10-14,29,23,18,26,20,17,95,90,75,0.00,40.00,24,15,45,0.00
2013-10-15,25,18,15,20,17,14,97,93,78,0.00,40.00,11,6,19,0.00
2013-10-16,18,16,13,15,13,9,96,90,66,0.00,40.00,18,10,34,0.00
2013-10-17,23,18,15,15,10,6,91,69,49,0.00,40.00,21,15,37,0.00
2013-10-18,17,13,9,16,10,6,96,86,71,0.00,40.00,31,20,51,0.00
2013-10-19,27,21,14,13,11,7,81,65,56,0.00,40.00,29,21,50,0.00
2013-10-20,25,23,22,20,15,12,91,70,58,0.00,40.00,21,16,43,0.00
2013-10-23,32,32,32,18,18,18,56,56,55,0.00,40.00,8,8,13,0.00
2013-10-24,39,34,30,17,11,5,55,39,27,0.00,40.00,13,9,19,0.00
2013-10-25,35,32,29,22,15,11,74,50,40,0.00,40.00,12,10,20,0.00
2013-10-26,35,30,24,21,7,-100,91,60,39,0.00,40.00,10,7,20,0.00
2013-10-27,33,29,26,17,15,12,70,56,42,0.00,40.00,19,13,41,0.00
2013-10-28,33,29,27,21,16,12,71,58,45,0.00,40.00,19,11,33,0.00
2013-10-29,29,25,22,21,13,6,92,61,39,0.00,40.00,19,12,42,0.00
2013-10-30,22,16,13,21,12,10,97,85,70,0.00,40.00,22,15,47,0.00
2013-10-31,17,13,11,15,11,9,94,92,88,0.00,40.00,32,23,54,0.00
2013-11-1,20,16,14,15,12,4,95,86,48,0.00,40.00,29,23,59,0.00
2013-11-2,35,30,21,1,-36,-100,42,19,12,0.00,40.00,28,19,49,0.00
2013-11-3,33,27,16,17,7,-11,92,45,13,0.00,40.00,27,18,50,0.00
2013-11-4,23,17,10,14,7,-6,91,68,34,0.00,40.00,19,13,38,0.00
2013-11-5,12,5,2,9,0,-10,90,81,54,0.00,40.00,26,15,36,0.00
2013-11-6,17,12,3,10,6,-9,90,77,57,0.00,40.00,21,17,45,0.00
2013-11-7,31,25,15,14,12,10,79,58,47,0.00,40.00,21,18,54,0.00
2013-11-8,30,28,24,14,9,3,58,45,32,0.00,40.00,34,22,62,0.00
2013-11-9,33,28,24,13,10,7,57,46,37,0.00,40.00,22,14,39,0.00
2013-11-10,32,28,25,12,11,8,54,47,40,0.00,40.00,16,14,29,0.00
2013-11-11,32,28,24,13,12,10,62,52,41,0.00,40.00,28,16,50,0.00
2013-11-12,35,30,24,12,6,-1,56,38,21,0.00,40.00,15,9,23,0.00
2013-11-13,32,28,26,11,4,-4,52,36,24,0.00,40.00,18,12,32,0.00
2013-11-14,26,22,18,19,8,-3,97,59,30,0.00,40.00,19,13,36,0.00
2013-11-15,25,20,18,17,8,-7,94,62,25,0.00,40.00,21,16,39,0.00
2013-11-16,18,15,13,15,12,8,93,85,67,0.00,40.00,32,26,69,0.00
2013-11-17,19,14,10,13,10,8,93,84,69,0.00,40.00,32,24,62,0.00
2013-11-18,31,25,17,10,1,-4,71,37,24,0.00,40.00,19,13,28,0.00
2013-11-19,27,24,20,20,10,-3,94,60,26,0.00,40.00,26,20,46,0.00
2013-11-20,23,20,17,19,16,14,94,83,71,0.00,40.00,21,12,37,0.00
2013-11-21,22,16,3,19,15,1,98,93,86,0.00,40.00,14,7,24,0.00
2013-11-22,20,13,4,16,10,2,97,89,75,0.00,40.00,12,5,20,0.00
2013-11-23,24,17,9,23,16,7,96,94,91,0.00,40.00,13,5,22,0.00
2013-11-24,22,21,17,21,20,17,98,95,90,0.00,40.00,15,9,27,0.00
2013-11-25,18,14,11,16,12,8,97,88,82,0.00,40.00,15,8,26,0.00
2013-11-26,18,15,13,11,8,4,88,73,54,0.00,40.00,19,12,37,0.00
2013-11-27,27,23,20,12,6,2,59,49,36,0.00,40.00,19,9,28,0.00
2013-11-28,31,26,23,8,6,3,50,42,31,0.00,40.00,19,11,21,0.00
2013-11-29,24,21,17,9,8,3,72,57,39,0.00,40.00,17,12,31,0.00
2013-11-30,22,19,16,7,2,-2,64,48,38,0.00,40.00,16,12,27,0.00
2013-12-1,21,18,14,17,10,3,93,71,54,0.00,40.00,28,22,52,0.00
2013-12-2,19,19,18,17,16,14,95,90,82,0.00,40.00,27,19,48,0.00
2013-12-3,20,19,18,19,18,16,97,95,92,0.00,40.00,19,16,30,0.00
2013-12-4,18,4,-10,17,1,-14,95,87,79,0.00,40.00,24,14,37,0.00
2013-12-5,-1,-7,-10,-12,-30,-100,85,59,28,0.00,40.00,22,15,40,0.00
2013-12-6,-5,-8,-11,-10,-13,-16,83,79,76,0.00,40.00,22,17,40,0.00
2013-12-7,5,1,-4,0,-3,-9,87,82,76,0.00,40.00,18,12,34,0.00
2013-12-8,0,-6,-11,-3,-10,-15,86,82,77,0.00,40.00,21,16,39,0.00
2013-12-9,-1,-11,-17,-6,-16,-22,82,77,73,0.00,40.00,33,23,53,0.00
2013-12-10,9,5,0,5,1,-6,88,84,76,0.00,40.00,24,19,44,0.00
2013-12-11,19,11,4,2,-7,-19,88,49,17,0.00,40.00,24,19,37,0.00
2013-12-12,26,22,18,2,-8,-13,35,26,20,0.00,40.00,18,14,29,0.00
2013-12-13,17,13,5,6,3,-1,92,66,47,0.00,40.00,17,12,32,0.00
2013-12-14,13,7,3,9,4,0,91,87,82,0.00,40.00,34,18,49,0.00
2013-12-15,22,16,11,13,10,8,95,77,57,0.00,40.00,40,26,67,0.00
2013-12-16,25,22,20,11,5,0,64,48,36,0.00,40.00,25,18,43,0.00
2013-12-17,28,25,22,7,3,-1,48,39,31,0.00,40.00,27,21,51,0.00
2013-12-18,30,27,22,10,3,0,57,36,28,0.00,40.00,23,18,44,0.00
2013-12-19,25,22,15,18,10,6,83,62,45,0.00,40.00,22,16,42,0.00
2013-12-20,14,12,7,12,9,4,92,89,85,0.00,40.00,19,16,37,0.00
2013-12-21,9,5,0,4,0,-5,88,80,54,0.00,40.00,16,11,34,0.00
2013-12-22,5,2,-1,3,0,-4,89,86,83,0.00,40.00,30,22,56,0.00
2013-12-23,14,10,4,13,8,2,95,90,85,0.00,40.00,36,26,69,0.00
2013-12-24,17,10,1,15,8,-5,94,89,68,0.00,40.00,32,22,64,0.00
2013-12-25,16,9,2,0,-6,-16,64,50,35,0.00,40.00,31,20,47,0.00
2013-12-26,18,16,14,12,4,-12,88,63,28,0.00,40.00,27,15,50,0.00
2013-12-27,28,24,17,15,14,11,88,65,57,0.00,40.00,15,10,34,0.00
2013-12-28,25,19,10,15,12,9,95,75,53,0.00,40.00,20,9,35,0.00
2013-12-29,11,7,3,7,0,-11,94,75,39,0.00,40.00,29,16,46,0.00
2013-12-30,15,11,8,6,4,-4,88,74,43,0.00,40.00,29,21,50,0.00
2013-12-31,18,16,15,14,12,6,93,83,62,0.00,40.00,25,21,42,0.00
2014-1-1,16,8,5,14,6,0,94,88,74,0.00,40.00,29,24,75,0.00
2014-1-2,21,16,7,11,1,-14,71,53,25,0.00,40.00,25,20,41,0.00